Time,TemperatureF,DewpointF,PressureIn,WindDirection,WindDirectionDegrees,WindSpeedMPH,WindSpeedGustMPH,Humidity,HourlyPrecipIn,Conditions,Clouds,dailyrainin,SoftwareType,DateUTC
2013-02-26 00:07:00,33.8,31.5,29.82,East,90,6.7,-999.0,91,-99.99,,,0.00,Acu-Link.com,2013-02-26 05:07:00,
2013-02-26 00:23:00,33.8,31.7,29.81,NE,45,6.3,-999.0,92,-99.99,,,0.02,Acu-Link.com,2013-02-26 05:23:00,
2013-02-26 00:38:00,33.8,31.7,29.81,East,90,10.7,-999.0,92,-99.99,,,0.02,Acu-Link.com,2013-02-26 05:38:00,
2013-02-26 00:53:00,33.8,32.3,29.79,ENE,67,9.2,-999.0,94,-99.99,,,0.04,Acu-Link.com,2013-02-26 05:53:00,
2013-02-26 01:08:00,33.8,32.0,29.79,ENE,67,6.7,-999.0,93,-99.99,,,0.05,Acu-Link.com,2013-02-26 06:08:00,
2013-02-26 01:23:00,33.8,33.3,29.78,NE,45,7.2,-999.0,98,-99.99,,,0.07,Acu-Link.com,2013-02-26 06:23:00,
2013-02-26 01:39:00,33.8,33.3,29.77,East,90,10.3,-999.0,98,-99.99,,,0.07,Acu-Link.com,2013-02-26 06:39:00,
2013-02-26 01:54:00,33.8,33.3,29.76,NE,45,10.3,-999.0,98,-99.99,,,0.08,Acu-Link.com,2013-02-26 06:54:00,
2013-02-26 02:09:00,33.8,33.3,29.76,ENE,67,8.7,-999.0,98,-99.99,,,0.08,Acu-Link.com,2013-02-26 07:09:00,
2013-02-26 02:25:00,33.8,33.3,29.73,East,90,15.0,-999.0,98,-99.99,,,0.11,Acu-Link.com,2013-02-26 07:25:00,
2013-02-26 02:40:00,33.8,33.3,29.73,NE,45,11.4,-999.0,98,-99.99,,,0.14,Acu-Link.com,2013-02-26 07:40:00,
2013-02-26 02:55:00,33.8,33.3,29.73,NE,45,4.7,-999.0,98,-99.99,,,0.21,Acu-Link.com,2013-02-26 07:55:00,
2013-02-26 03:11:00,33.8,33.3,29.73,ENE,67,13.0,-999.0,98,-99.99,,,0.27,Acu-Link.com,2013-02-26 08:11:00,
2013-02-26 03:26:00,33.8,33.3,29.71,NE,45,8.7,-999.0,98,-99.99,,,0.36,Acu-Link.com,2013-02-26 08:26:00,
2013-02-26 03:41:00,33.8,33.3,29.73,ENE,67,6.3,-999.0,98,-99.99,,,0.36,Acu-Link.com,2013-02-26 08:41:00,
2013-02-26 03:56:00,33.8,33.3,29.73,NNE,22,6.3,-999.0,98,-99.99,,,0.46,Acu-Link.com,2013-02-26 08:56:00,
2013-02-26 07:04:00,33.8,33.3,29.62,NE,45,9.8,-999.0,98,-99.99,,,0.60,Acu-Link.com,2013-02-26 12:04:00,
2013-02-26 07:19:00,33.8,33.3,29.61,NNE,22,11.9,-999.0,98,-99.99,,,0.70,Acu-Link.com,2013-02-26 12:19:00,
2013-02-26 07:34:00,33.8,33.3,29.60,NE,45,7.8,-999.0,98,-99.99,,,0.79,Acu-Link.com,2013-02-26 12:34:00,
2013-02-26 07:50:00,33.8,33.3,29.60,NE,45,7.8,-999.0,98,-99.99,,,0.86,Acu-Link.com,2013-02-26 12:50:00,
2013-02-26 08:05:00,33.8,33.3,29.60,NNE,22,12.3,-999.0,98,-99.99,,,0.89,Acu-Link.com,2013-02-26 13:05:00,
2013-02-26 08:20:00,33.8,33.3,29.60,East,90,10.3,-999.0,98,-99.99,,,0.91,Acu-Link.com,2013-02-26 13:20:00,
2013-02-26 08:35:00,33.8,33.3,29.57,NE,45,12.3,-999.0,98,-99.99,,,0.94,Acu-Link.com,2013-02-26 13:35:00,
2013-02-26 08:51:00,33.8,33.3,29.58,ENE,67,8.7,-999.0,98,-99.99,,,0.99,Acu-Link.com,2013-02-26 13:51:00,
2013-02-26 09:06:00,33.8,33.3,29.58,East,90,12.3,-999.0,98,-99.99,,,1.01,Acu-Link.com,2013-02-26 14:06:00,
2013-02-26 09:21:00,35.6,35.1,29.57,ENE,67,4.7,-999.0,98,-99.99,,,1.02,Acu-Link.com,2013-02-26 14:21:00,
2013-02-26 09:37:00,35.6,35.1,29.56,ESE,112,6.7,-999.0,98,-99.99,,,1.02,Acu-Link.com,2013-02-26 14:37:00,
2013-02-26 09:52:00,33.8,33.3,29.56,NE,45,7.2,-999.0,98,-99.99,,,1.04,Acu-Link.com,2013-02-26 14:52:00,
2013-02-26 10:07:00,35.6,35.1,29.54,NE,45,7.8,-999.0,98,-99.99,,,1.04,Acu-Link.com,2013-02-26 15:07:00,
2013-02-26 10:22:00,35.6,35.1,29.53,East,90,9.8,-999.0,98,-99.99,,,1.05,Acu-Link.com,2013-02-26 15:22:00,
2013-02-26 10:37:00,35.6,35.1,29.49,ENE,67,4.0,-999.0,98,-99.99,,,1.06,Acu-Link.com,2013-02-26 15:37:00,
2013-02-26 10:53:00,35.6,35.1,29.48,East,90,9.2,-999.0,98,-99.99,,,1.07,Acu-Link.com,2013-02-26 15:53:00,
2013-02-26 11:08:00,35.6,35.1,29.49,ENE,67,10.7,-999.0,98,-99.99,,,1.07,Acu-Link.com,2013-02-26 16:08:00,
2013-02-26 11:23:00,35.6,35.1,29.50,East,90,9.2,-999.0,98,-99.99,,,1.07,Acu-Link.com,2013-02-26 16:23:00,
2013-02-26 11:38:00,35.6,35.1,29.51,NE,45,7.8,-999.0,98,-99.99,,,1.08,Acu-Link.com,2013-02-26 16:38:00,
2013-02-26 11:54:00,37.4,36.9,29.51,ESE,112,4.0,-999.0,98,-99.99,,,1.11,Acu-Link.com,2013-02-26 16:54:00,
2013-02-26 12:09:00,37.4,36.9,29.50,ESE,112,3.6,-999.0,98,-99.99,,,1.13,Acu-Link.com,2013-02-26 17:09:00,
2013-02-26 12:24:00,37.4,36.9,29.50,NNW,337,3.6,-999.0,98,-99.99,,,1.13,Acu-Link.com,2013-02-26 17:24:00,
2013-02-26 12:40:00,37.4,36.9,29.49,ESE,112,4.0,-999.0,98,-99.99,,,1.14,Acu-Link.com,2013-02-26 17:40:00,
2013-02-26 12:55:00,37.4,36.9,29.48,NE,45,6.7,-999.0,98,-99.99,,,1.14,Acu-Link.com,2013-02-26 17:55:00,
2013-02-26 13:10:00,37.4,36.9,29.47,ENE,67,5.6,-999.0,98,-99.99,,,1.14,Acu-Link.com,2013-02-26 18:10:00,
2013-02-26 13:25:00,37.4,36.9,29.45,NE,45,5.6,-999.0,98,-99.99,,,1.14,Acu-Link.com,2013-02-26 18:25:00,
2013-02-26 13:40:00,39.2,38.7,29.44,East,90,6.3,-999.0,98,-99.99,,,1.14,Acu-Link.com,2013-02-26 18:40:00,
2013-02-26 13:56:00,39.2,38.7,29.44,NNE,22,6.7,-999.0,98,-99.99,,,1.14,Acu-Link.com,2013-02-26 18:56:00,
2013-02-26 14:11:00,39.2,38.7,29.44,NE,45,4.0,-999.0,98,-99.99,,,1.14,Acu-Link.com,2013-02-26 19:11:00,
2013-02-26 14:26:00,41.0,40.5,29.44,NE,45,4.7,-999.0,98,-99.99,,,1.15,Acu-Link.com,2013-02-26 19:26:00,
2013-02-26 14:42:00,41.0,40.5,29.44,ENE,67,5.1,-999.0,98,-99.99,,,1.15,Acu-Link.com,2013-02-26 19:42:00,
2013-02-26 14:57:00,41.0,40.5,29.44,North,0,2.0,-999.0,98,-99.99,,,1.15,Acu-Link.com,2013-02-26 19:57:00,
2013-02-26 15:12:00,41.0,40.5,29.43,NE,45,4.7,-999.0,98,-99.99,,,1.15,Acu-Link.com,2013-02-26 20:12:00,
2013-02-26 15:28:00,41.0,40.5,29.44,East,90,2.7,-999.0,98,-99.99,,,1.15,Acu-Link.com,2013-02-26 20:28:00,
2013-02-26 15:43:00,42.8,42.3,29.44,East,90,3.1,-999.0,98,-99.99,,,1.15,Acu-Link.com,2013-02-26 20:43:00,
2013-02-26 15:58:00,42.8,42.3,29.43,East,90,2.7,-999.0,98,-99.99,,,1.15,Acu-Link.com,2013-02-26 20:58:00,
2013-02-26 16:13:00,42.8,42.3,29.43,ESE,112,2.7,-999.0,98,-99.99,,,1.15,Acu-Link.com,2013-02-26 21:13:00,
2013-02-26 16:29:00,42.8,42.3,29.43,East,90,3.6,-999.0,98,-99.99,,,1.15,Acu-Link.com,2013-02-26 21:29:00,
2013-02-26 16:44:00,42.8,42.3,29.43,South,180,1.6,-999.0,98,-99.99,,,1.15,Acu-Link.com,2013-02-26 21:44:00,
2013-02-26 16:59:00,44.6,44.1,29.43,ENE,67,0.0,-999.0,98,-99.99,,,1.15,Acu-Link.com,2013-02-26 21:59:00,
2013-02-26 17:15:00,42.8,42.3,29.42,ESE,112,2.7,-999.0,98,-99.99,,,1.15,Acu-Link.com,2013-02-26 22:15:00,
2013-02-26 17:30:00,42.8,42.3,29.42,ESE,112,1.6,-999.0,98,-99.99,,,1.15,Acu-Link.com,2013-02-26 22:30:00,
2013-02-26 17:45:00,42.8,42.3,29.42,WSW,247,2.7,-999.0,98,-99.99,,,1.15,Acu-Link.com,2013-02-26 22:45:00,
2013-02-26 18:01:00,42.8,42.3,29.45,WNW,292,0.0,-999.0,98,-99.99,,,1.15,Acu-Link.com,2013-02-26 23:01:00,
2013-02-26 18:16:00,42.8,42.3,29.45,SW,225,0.0,-999.0,98,-99.99,,,1.15,Acu-Link.com,2013-02-26 23:16:00,
2013-02-26 18:31:00,42.8,42.3,29.46,WSW,247,3.1,-999.0,98,-99.99,,,1.15,Acu-Link.com,2013-02-26 23:31:00,
2013-02-26 18:46:00,41.0,40.5,29.45,South,180,3.6,-999.0,98,-99.99,,,1.15,Acu-Link.com,2013-02-26 23:46:00,
2013-02-26 19:01:00,41.0,40.5,29.46,WSW,247,1.6,-999.0,98,-99.99,,,1.15,Acu-Link.com,2013-02-27 00:01:00,
2013-02-26 19:17:00,41.0,40.5,29.47,SSW,202,4.0,-999.0,98,-99.99,,,1.15,Acu-Link.com,2013-02-27 00:17:00,
2013-02-26 19:32:00,41.0,40.5,29.48,SW,225,2.7,-999.0,98,-99.99,,,1.15,Acu-Link.com,2013-02-27 00:32:00,
2013-02-26 19:47:00,41.0,40.5,29.47,SW,225,4.7,-999.0,98,-99.99,,,1.15,Acu-Link.com,2013-02-27 00:47:00,
2013-02-26 20:03:00,41.0,40.5,29.46,SW,225,5.6,-999.0,98,-99.99,,,1.15,Acu-Link.com,2013-02-27 01:03:00,
2013-02-26 20:18:00,41.0,40.5,29.47,WSW,247,3.6,-999.0,98,-99.99,,,1.15,Acu-Link.com,2013-02-27 01:18:00,
2013-02-26 20:33:00,41.0,40.5,29.47,SW,225,4.0,-999.0,98,-99.99,,,1.15,Acu-Link.com,2013-02-27 01:33:00,
2013-02-26 20:49:00,41.0,40.5,29.47,SW,225,4.7,-999.0,98,-99.99,,,1.15,Acu-Link.com,2013-02-27 01:49:00,
2013-02-26 21:04:00,41.0,40.5,29.48,SSE,157,2.7,-999.0,98,-99.99,,,1.15,Acu-Link.com,2013-02-27 02:04:00,
2013-02-26 21:19:00,41.0,40.5,29.49,SSW,202,3.6,-999.0,98,-99.99,,,1.15,Acu-Link.com,2013-02-27 02:19:00,
2013-02-26 21:34:00,41.0,40.5,29.49,WSW,247,4.0,-999.0,98,-99.99,,,1.15,Acu-Link.com,2013-02-27 02:34:00,
2013-02-26 21:50:00,41.0,40.5,29.50,WSW,247,5.1,-999.0,98,-99.99,,,1.15,Acu-Link.com,2013-02-27 02:50:00,
2013-02-26 22:05:00,41.0,40.5,29.50,SW,225,3.1,-999.0,98,-99.99,,,1.15,Acu-Link.com,2013-02-27 03:05:00,
2013-02-26 22:20:00,41.0,40.5,29.49,SSW,202,5.1,-999.0,98,-99.99,,,1.15,Acu-Link.com,2013-02-27 03:20:00,
2013-02-26 22:36:00,41.0,40.5,29.48,SSW,202,7.8,-999.0,98,-99.99,,,1.15,Acu-Link.com,2013-02-27 03:36:00,
2013-02-26 22:51:00,41.0,40.5,29.49,WSW,247,4.7,-999.0,98,-99.99,,,1.15,Acu-Link.com,2013-02-27 03:51:00,
2013-02-26 23:06:00,41.0,40.5,29.49,WSW,247,9.2,-999.0,98,-99.99,,,1.15,Acu-Link.com,2013-02-27 04:06:00,
2013-02-26 23:21:00,39.2,38.7,29.49,SSW,202,7.8,-999.0,98,-99.99,,,1.15,Acu-Link.com,2013-02-27 04:21:00,
2013-02-26 23:37:00,41.0,38.3,29.50,West,270,7.8,-999.0,90,-99.99,,,1.15,Acu-Link.com,2013-02-27 04:37:00,
2013-02-26 23:52:00,41.0,37.7,29.51,WSW,247,10.7,-999.0,88,-99.99,,,1.15,Acu-Link.com,2013-02-27 04:52:00,